Fort Indiantown Gap, PA

9:16 PM EDT on October 16, 2017 (GMT -0400)
Muir Army Air Field

Weather History for KMUI - January, 2013

Change the Weather History Date:

Friday, January 25, 2013

  Actual Average Record
Temperature  
Mean Temperature 26 °F -  
Max Temperature 46 °F 33 °F 53 °F (2017)
Min Temperature 6 °F 21 °F 6 °F (2013)
Degree Days  
Heating Degree Days 39    
Moisture  
Dew Point 10 °F    
Average Humidity 86    
Maximum Humidity 100    
Minimum Humidity 18    
Precipitation  
Precipitation 0.05 in - - ()
Snow  
Snow 0.00 in - - ()
Snow Depth 3.00 in    
Sea Level Pressure  
Sea Level Pressure 30.20 in    
Wind  
Wind Speed 3 mph (SE)    
Max Wind Speed 9 mph    
Max Gust Speed -    
Visibility 5 miles    
Events Snow    
Averages and records for this station are not official NWS values.
T = Trace of Precipitation, MM = Missing Value Source: NWS Daily Summary

Daily Weather History Graph

Daily Weather History Graph

Search for Another Location

Airport or City:

Trip Planner

Search our weather history database for the weather conditions in past years. The results will help you decide how hot, cold, wet, or windy it might be!

Date:

Astronomy

Jan. 25, 2013 Rise Set
Actual Time 7:21 AM EST 5:16 PM EST
Civil Twilight 6:52 AM EST 5:45 PM EST
Nautical Twilight 6:19 AM EST 6:18 PM EST
Astronomical Twilight 5:46 AM EST 6:50 PM EST
Moon 4:11 PM EST (1/25) 5:59 AM EST (1/25)
Length of Visible Light 10h 53m
Length of Day
9h 54m
Waxing Gibbous, 98% of the Moon is Illuminated
Jan 25
Waxing Gibbous
Jan 26
Full
Feb 3
Last Quarter
Feb 10
New
Feb 17
First Quarter

Hourly Weather History & Observations

Time (EST) Temp. Windchill Dew Point Humidity Pressure Visibility Wind Dir Wind Speed Gust Speed Precip Events Conditions
12:55 AM 15.3 °F 3.5 °F -1.5 °F 48% 30.50 in 10.0 mi West 9.2 mph - N/A   Clear
1:55 AM 14.7 °F 4.8 °F -1.5 °F 49% 30.49 in 10.0 mi Variable 6.9 mph - N/A   Clear
2:55 AM 13.8 °F - -1.7 °F 50% 30.49 in 10.0 mi Calm Calm - N/A   Clear
3:55 AM 14.0 °F 3.9 °F -1.3 °F 51% 30.49 in 10.0 mi Variable 6.9 mph - N/A   Clear
4:55 AM 13.6 °F 4.6 °F -0.8 °F 53% 30.49 in 10.0 mi NNW 5.8 mph - N/A   Clear
5:55 AM 13.8 °F - -1.3 °F 51% 30.46 in 10.0 mi Calm Calm - N/A   Clear
6:55 AM 14.0 °F 8.2 °F -1.7 °F 50% 30.45 in 10.0 mi Variable 3.5 mph - N/A   Clear
7:55 AM 14.0 °F - -0.9 °F 52% 30.44 in 10.0 mi Calm Calm - N/A   Clear
8:55 AM 14.5 °F - -1.1 °F 50% 30.44 in 10.0 mi Calm Calm - N/A   Clear
9:55 AM 15.4 °F 9.8 °F -0.4 °F 50% 30.41 in 10.0 mi ESE 3.5 mph - N/A   Partly Cloudy
10:42 AM 15.8 °F - -0.4 °F 49% 30.40 in 10.0 mi Calm Calm - N/A Snow Light Snow
10:55 AM 16.0 °F 10.4 °F -0.6 °F 48% 30.40 in 10.0 mi Variable 3.5 mph - N/A   Scattered Clouds
11:55 AM 17.1 °F 8.7 °F -0.2 °F 47% 30.36 in 10.0 mi SSW 5.8 mph - N/A   Overcast
12:55 PM 18.1 °F 12.9 °F -0.2 °F 45% 30.29 in 10.0 mi Variable 3.5 mph - N/A   Overcast
1:44 PM 19.4 °F 14.3 °F 1.4 °F 46% 30.21 in 10.0 mi SE 3.5 mph - N/A Snow Light Snow
1:48 PM 17.6 °F - 1.4 °F 49% 30.24 in 7.0 mi Calm Calm - N/A Snow Light Snow
1:55 PM 18.0 °F - 2.5 °F 51% 30.23 in 9.0 mi Calm Calm - 0.00 in Snow Light Snow
2:17 PM 46.4 °F 44.3 °F 5.0 °F 18% 30.20 in 2.0 mi South 4.6 mph - N/A   Unknown
2:24 PM 17.6 °F 7.3 °F 8.6 °F 68% 30.24 in 5.0 mi South 8.1 mph - N/A Snow Light Snow
2:39 PM 17.6 °F 9.3 °F 10.4 °F 73% 30.23 in 1.5 mi South 5.8 mph - N/A Snow Light Snow
2:49 PM 17.6 °F 8.2 °F 12.2 °F 79% 30.22 in - Variable 6.9 mph - N/A Snow Light Snow
2:55 PM 16.7 °F 8.3 °F 12.2 °F 82% 30.21 in - SE 5.8 mph - 0.00 in Snow Light Snow
3:13 PM 15.8 °F 10.2 °F 14.0 °F 93% 30.20 in 1.5 mi SE 3.5 mph - N/A Snow Light Snow
3:18 PM 15.8 °F 8.6 °F 14.0 °F 93% 30.19 in 1.2 mi Variable 4.6 mph - N/A Snow Light Snow
3:21 PM 15.8 °F 8.6 °F 14.0 °F 93% 30.19 in 1.0 mi ESE 4.6 mph - N/A Snow Light Snow
3:28 PM 15.8 °F 7.2 °F 14.0 °F 93% 30.19 in 1.2 mi SE 5.8 mph - N/A Snow Light Snow
3:31 PM 15.8 °F 7.2 °F 14.0 °F 93% 30.19 in 1.5 mi SE 5.8 mph - N/A Snow Light Snow
3:36 PM 15.8 °F 7.2 °F 14.0 °F 93% 30.18 in 1.2 mi ESE 5.8 mph - N/A Snow Light Snow
3:41 PM 15.8 °F 8.6 °F 14.0 °F 93% 30.18 in 1.0 mi ESE 4.6 mph - N/A Snow Light Snow
3:49 PM 15.8 °F 8.6 °F 14.0 °F 93% 30.18 in 0.8 mi SE 4.6 mph - N/A Snow Light Snow
3:55 PM 16.5 °F 9.4 °F 14.7 °F 93% 30.18 in 0.8 mi East 4.6 mph - 0.01 in Snow Light Snow
3:56 PM 15.8 °F 8.6 °F 14.0 °F 93% 30.18 in 0.8 mi ESE 4.6 mph - N/A Snow Light Snow
4:12 PM 15.8 °F 10.2 °F 14.0 °F 93% 30.17 in 1.0 mi SE 3.5 mph - N/A Snow Light Snow
4:15 PM 15.8 °F - 14.0 °F 93% 30.17 in 1.2 mi Calm Calm - N/A Snow Light Snow
4:19 PM 15.8 °F - 14.0 °F 93% 30.17 in 1.0 mi Calm Calm - N/A Snow Light Snow
4:27 PM 15.8 °F - 15.8 °F 100% 30.17 in 0.8 mi Calm Calm - N/A Snow Light Snow
4:29 PM 15.8 °F - 15.8 °F 100% 30.17 in 1.0 mi Calm Calm - N/A Snow Light Snow
4:39 PM 15.8 °F - 15.8 °F 100% 30.17 in 1.0 mi Calm Calm - N/A Snow Light Snow
4:43 PM 15.8 °F - 15.8 °F 100% 30.17 in 0.8 mi Calm Calm - N/A Snow Light Snow
4:45 PM 15.8 °F - 15.8 °F 100% 30.17 in 0.8 mi Calm Calm - N/A Snow Light Snow
4:55 PM 16.5 °F - 15.4 °F 96% 30.16 in 0.8 mi Calm Calm - 0.01 in Snow Light Snow
5:06 PM 15.8 °F - 15.8 °F 100% 30.16 in 1.0 mi Calm Calm - N/A Snow Light Snow
5:28 PM 15.8 °F - 15.8 °F 100% 30.15 in 0.8 mi Calm Calm - N/A Snow Light Snow
5:30 PM 15.8 °F 8.6 °F 15.8 °F 100% 30.15 in 1.0 mi SE 4.6 mph - N/A Snow Light Snow
5:34 PM 15.8 °F 10.2 °F 15.8 °F 100% 30.15 in 1.2 mi SE 3.5 mph - N/A Snow Light Snow
5:36 PM 15.8 °F - 15.8 °F 100% 30.16 in 1.2 mi Calm Calm - N/A Snow Light Snow
5:37 PM 15.8 °F - 15.8 °F 100% 30.16 in 1.5 mi Calm Calm - N/A Snow Light Snow
5:39 PM 15.8 °F - 15.8 °F 100% 30.16 in 1.8 mi Calm Calm - N/A Snow Light Snow
5:49 PM 15.8 °F - 15.8 °F 100% 30.15 in 1.8 mi Calm Calm - N/A Snow Light Snow
5:53 PM 15.8 °F - 15.8 °F 100% 30.15 in 1.5 mi Calm Calm - N/A Snow Light Snow
5:55 PM 16.5 °F - 16.0 °F 98% 30.15 in 1.5 mi Calm Calm - 0.02 in Snow Light Snow
5:58 PM 15.8 °F - 15.8 °F 100% 30.15 in 1.2 mi Calm Calm - N/A Snow Light Snow
6:10 PM 15.8 °F - 15.8 °F 100% 30.14 in 1.5 mi Calm Calm - N/A Snow Light Snow
6:19 PM 15.8 °F - 15.8 °F 100% 30.15 in 1.8 mi Calm Calm - N/A Snow Light Snow
6:27 PM 15.8 °F - 15.8 °F 100% 30.14 in 2.0 mi Calm Calm - N/A Snow Light Snow
6:31 PM 15.8 °F - 15.8 °F 100% 30.14 in 2.0 mi Calm Calm - N/A Snow Light Snow
6:33 PM 15.8 °F - 15.8 °F 100% 30.14 in 2.0 mi Calm Calm - N/A Snow Light Snow
6:37 PM 15.8 °F - 15.8 °F 100% 30.14 in 1.8 mi Calm Calm - N/A Snow Light Snow
6:41 PM 15.8 °F - 15.8 °F 100% 30.14 in 2.0 mi Calm Calm - N/A Snow Light Snow
6:47 PM 15.8 °F - 15.8 °F 100% 30.14 in 2.5 mi Calm Calm - N/A Snow Light Snow
6:49 PM 15.8 °F - 15.8 °F 100% 30.14 in 3.0 mi Calm Calm - N/A Snow Light Snow
6:50 PM 15.8 °F - 15.8 °F 100% 30.14 in 3.0 mi Calm Calm - N/A Snow Light Snow
6:55 PM 15.8 °F - 15.4 °F 98% 30.14 in 3.0 mi Calm Calm - 0.00 in Snow Light Snow
7:55 PM 12.2 °F - 11.8 °F 98% 30.13 in 10.0 mi Calm Calm - 0.01 in Snow Light Snow
8:55 PM 9.1 °F - 8.6 °F 98% 30.10 in 9.0 mi Calm Calm - 0.00 in Snow Light Snow
9:11 PM 8.6 °F - 6.8 °F 92% 30.11 in 10.0 mi Calm Calm - N/A   Overcast
9:12 PM 8.6 °F - 6.8 °F 92% 30.11 in 10.0 mi Calm Calm - N/A   Light Freezing Drizzle
9:22 PM 8.6 °F - 8.6 °F 100% 30.10 in 9.0 mi Calm Calm - N/A   Light Freezing Drizzle
9:41 PM 6.8 °F - 5.0 °F 92% 30.09 in 6.0 mi Calm Calm - N/A   Overcast
9:55 PM 7.9 °F - 7.2 °F 97% 30.10 in 10.0 mi Calm Calm - 0.00 in   Overcast
10:06 PM 10.4 °F - 8.6 °F 92% 30.10 in 10.0 mi Calm Calm - N/A   Overcast
10:17 PM 10.4 °F - 8.6 °F 92% 30.10 in 10.0 mi Calm Calm - N/A   Overcast
10:32 PM 8.6 °F - 8.6 °F 100% 30.09 in 10.0 mi Calm Calm - N/A   Overcast
10:38 PM 6.8 °F - 5.0 °F 92% 30.10 in 10.0 mi Calm Calm - N/A   Overcast
10:44 PM 6.8 °F - 6.8 °F 100% 30.09 in 9.0 mi Calm Calm - N/A Snow Light Snow
10:51 PM 8.6 °F - 8.6 °F 100% 30.09 in 7.0 mi Calm Calm - N/A Snow Light Snow
10:55 PM 8.6 °F - 7.7 °F 96% 30.09 in 7.0 mi Calm Calm - 0.00 in Snow Light Snow
11:08 PM 8.6 °F - 8.6 °F 100% 30.10 in 8.0 mi Calm Calm - N/A   Overcast
11:09 PM 8.6 °F - 8.6 °F 100% 30.10 in 8.0 mi Calm Calm - N/A   Overcast
11:16 PM 8.6 °F - 6.8 °F 92% 30.10 in 9.0 mi Calm Calm - N/A   Light Freezing Drizzle
11:19 PM 8.6 °F - 6.8 °F 92% 30.10 in 10.0 mi Calm Calm - N/A   Overcast
11:20 PM 8.6 °F - 6.8 °F 92% 30.10 in 10.0 mi Calm Calm - N/A   Light Freezing Drizzle
11:27 PM 8.6 °F - 8.6 °F 100% 30.10 in 9.0 mi Calm Calm - N/A   Light Freezing Drizzle
11:48 PM 8.6 °F - 6.8 °F 92% 30.11 in 10.0 mi Calm Calm - N/A   Light Freezing Drizzle
11:49 PM 8.6 °F - 8.6 °F 100% 30.12 in 10.0 mi Calm Calm - N/A   Overcast
11:55 PM 9.3 °F - 8.8 °F 98% 30.11 in 10.0 mi Calm Calm - 0.00 in   Overcast